Location: Newark
(48.3831°N, 4.1956°E)
Time: 07:58:34
(UTC+00:00)

Envisat - Pass Details

Date: 19 November 2019
Orbit: 764 x 766 km, 98.1° (Epoch: 06 December)

Event Time Altitude Azimuth Distance (km) Brightness Sun altitude
Rises 18:56:38 0° 208° (SSW) 3,221 6.5 -29.0°
Reaches altitude 10° 18:59:37 10° 227° (SW) 2,300 6.0 -29.5°
Maximum altitude 19:03:06 18° 271° (W) 1,795 5.6 -30.0°
Drops below altitude 10° 19:06:35 10° 314° (NW) 2,312 6.0 -30.6°
Sets 19:09:37 0° 333° (NNW) 3,243 6.6 -31.1°
